Preview of NWS' New Version of Forecast
This preview is not operational and should not be used for support decisions.

Regional Weather Roundup (RWR)

Issued by National Weather Service (NWS)

                            
000
ASUS45 KABQ 210301
RWRNM 
NEW MEXICO REGIONAL WEATHER ROUNDUP
NATIONAL WEATHER SERVICE ALBUQUERQUE NM
800 PM MST WED FEB 20 2019

NOTE: "FAIR" MEANS FEW OR NO CLOUDS BELOW 12,000 FEET AGL WITH NO
       SIGNIFICANT WEATHER OR OBSTRUCTIONS TO VISION.

      THIS PRODUCT IS RELEASED AS TWO VERSIONS.  ONE VERSION NEAR
      THE TOP OF THE HOUR CONTAINING PRELIMINARY DATA FROM ALBUQUERQUE
      AND OTHER STATIONS.  A FINAL VERSION WITH ADDITIONAL DATA IS 
      ISSUED ABOUT 10 MINUTES AFTER THE HOUR.
 
NMZ501-503-504-510>518-210400-
NORTHWEST PLATEAU/NORTHCENTRAL MOUNTAINS
  
CITY           SKY/WX    TMP DP  RH WIND       PRES   REMARKS
FARMINGTON     CLOUDY    26  15  63 E16G25    29.71S WCI  14          
LOS ALAMOS     CLOUDY    25   9  50 CALM      29.74S                  
SANTA FE       FAIR      24  13  62 SE3       29.75R                  
ANGEL FIRE       N/A     11   4  74 SE9       29.72R WCI  -2          

$$
NMZ402-403-502-505>509-210400-
WESTCENTRAL MOUNTAINS/SOUTHWEST MOUNTAINS
  
CITY           SKY/WX    TMP DP  RH WIND       PRES   REMARKS
GALLUP         CLOUDY    28  16  60 S7        29.69S WCI  21          
GRANTS         FAIR      23  13  63 CALM      29.74S                  
SILVER CITY    FAIR      29  10  45 N7        29.79S WCI  22          

$$
NMZ407-409-411-412-210400-
SOUTHERN DESERTS
  
CITY           SKY/WX    TMP DP  RH WIND       PRES   REMARKS
DEMING         FAIR      39   5  24 W3        29.80R                  
LAS CRUCES     FAIR      40   4  22 W7        29.82R WCI  35          
ALAMOGORDO     FAIR      37   1  22 S12       29.82S WCI  30          
T OR C         FAIR      43  -3  14 SW15      29.76R                  

$$
NMZ519>523-210400-
CENTRAL VALLEYS/CENTRAL HIGHLANDS
  
CITY           SKY/WX    TMP DP  RH WIND       PRES   REMARKS
ALBUQUERQUE    FAIR      33  10  38 NE5       29.74F WCI  29          
DOUBLE EAGLE   PTCLDY    27  16  63 VRB6      29.75S WCI  20          
CLINES CORNERS FAIR      20   8  60 W3        29.76R                  
BELEN          FAIR      33  11  40 E6        29.76R WCI  27          
SOCORRO        FAIR      37   4  25 S8        29.75S WCI  30          

$$
NMZ524>526-539-540-210400-
SOUTHCENTRAL MOUNTAINS
  
CITY           SKY/WX    TMP DP  RH WIND       PRES   REMARKS
RUIDOSO        NOT AVBL                                               

$$
NMZ527>531-210400-
NORTHEAST HIGHLANDS/NORTHEAST PLAINS
  
CITY           SKY/WX    TMP DP  RH WIND       PRES   REMARKS
LAS VEGAS      FAIR      25   8  48 S15       29.72R WCI  13          
RATON          FAIR      28   9  44 W20       29.66S WCI  15          
CLAYTON        FAIR      23  14  68 S8        29.72R WCI  14          

$$
NMZ532>537-210400-
EASTCENTRAL PLAINS
  
CITY           SKY/WX    TMP DP  RH WIND       PRES   REMARKS
SANTA ROSA     FAIR      28   7  39 SE3       29.79R                  
TUCUMCARI      FAIR      36   9  32 SW13      29.77R WCI  27          
CANNON AFB     NOT AVBL                                               
CLOVIS AIRPORT FAIR      26   9  48 S5        29.82R WCI  20          

$$
NMZ028-029-538-210400-
SOUTHEAST PLAINS
  
CITY           SKY/WX    TMP DP  RH WIND       PRES   REMARKS
ROSWELL        FAIR      43   1  17 S16       29.76R                  
ARTESIA        FAIR      46   1  15 S18       29.80R                  
CARLSBAD       FAIR      48   8  19 S13       29.81R                  
HOBBS          FAIR      46   3  17 S9        29.83S                  


$$